Regional Weather Roundup
Issued by NWS

Home | Current Version | Previous Version | Text Only | Print | Product List | Glossary Off
Versions: 1 2 3 4 5 6 7 8 9 10 11 12 13 14 15 16 17 18 19 20 21 22 23 24 25 26 27 28 29 30 31 32 33 34 35 36 37 38 39 40 41 42 43 44 45 46 47 48 49 50

000
ASUS45 KBOU 230410
RWRCO

WEATHER ROUNDUP FOR COLORADO
NATIONAL WEATHER SERVICE PUEBLO CO
1000 PM MDT SUN APR 22 2018

NOTE: "FAIR" INDICATES FEW OR NO CLOUDS BELOW 12000 FEET WITH NO
SIGNIFICANT WEATHER AND/OR OBSTRUCTIONS TO VISIBILITY.

COZ001>005-013-030-031-230500-
...NORTHWEST COLORADO...

CITY           SKY/WX    TMP DP  RH WIND       PRES   REMARKS
CRAIG          PTCLDY    43  36  76 CALM      30.08R
HAYDEN         PTCLDY    47  34  60 CALM      30.11R
MEEKER         PTCLDY    50  35  56 E6        30.09R
RABBIT EARS PA NOT AVBL
STEAMBOAT SPGS FAIR      47  30  50 CALM      30.11R
WALDEN         FAIR      43  27  52 CALM      30.19S
$$

COZ006>008-011-230500-
...WEST CENTRAL VALLEYS...

CITY           SKY/WX    TMP DP  RH WIND       PRES   REMARKS
GRAND JUNCTION MOCLDY    56  26  31 E3        30.00R
MONTROSE       PTCLDY    54  33  45 SE9       30.09R
EAGLE          PTCLDY    48  34  58 E8        30.14R
RIFLE          PTCLDY    53  38  56 SE8       30.05R
DELTA          NOT AVBL
NUCLA          FAIR      59  27  29 CALM      30.11R
$$

COZ017>023-064>068-230500-
...SOUTHWEST COLORADO...

CITY           SKY/WX    TMP DP  RH WIND       PRES   REMARKS
DURANGO        PTCLDY    53  24  32 N6        30.11R
CORTEZ         PTCLDY    47  23  38 NE8       30.08R
PAGOSA SPRINGS FAIR      47  17  30 NE3       30.17R
TELLURIDE      MOCLDY    46  29  52 SE6       30.26R
WOLF CREEK PAS PTCLDY    34  16  47 SW8       30.42R WCI  27
$$

COZ009-010-012-014-032>034-037-058>063-230500-
...CENTRAL COLORADO...

CITY           SKY/WX    TMP DP  RH WIND       PRES   REMARKS
ASPEN          PTCLDY    43  29  57 S8        30.17R
BUENA VISTA    FAIR      48  33  56 NE7       30.23R
COPPER MTN     NOT AVBL
BERTHOUD PASS  MOCLDY    28  18  64 SE8       30.38S WCI  20
COTTONWOOD PAS CLOUDY    45  36  70 CALM      30.31R
GUNNISON       CLOUDY    52  32  46 E5        30.18R
KREMMLING      CLEAR     46  34  61 CALM      30.17R
LEADVILLE      MOCLDY    32  30  92 E5        30.28R WCI  27
MONARCH PASS   CLOUDY    32  28  86 CALM      30.48S
SALIDA         MOCLDY    51  34  51 E8        30.28R
SUNLIGHT       MOCLDY    36  23  60 CALM      30.34R
WILKERSON PASS CLOUDY    34  27  75 CALM      30.39R
$$

COZ069>075-230500-
...SAN LUIS VALLEY/SANGRE DE CRISTO MOUNTAINS...

CITY           SKY/WX    TMP DP  RH WIND       PRES   REMARKS
ALAMOSA        CLOUDY    52  30  43 E14       30.15R
DEL NORTE      CLOUDY    47  26  44 W8        30.19S
LA VETA PASS   PTCLDY    36  28  75 N7        30.42S
SAGUACHE       NOT AVBL
$$

COZ035-036-038>040-230500-
...NORTHERN COLORADO FRONT RANGE...

CITY           SKY/WX    TMP DP  RH WIND       PRES   REMARKS
DENVER INTL AP CLEAR     43  35  73 SE12      30.13R
DMNS CITY PARK NOT AVBL
AURORA         PTCLDY    47  36  65 SE13      30.14S
FRONT RANGE AP FAIR      45  39  77 SE7       30.14F
ERIE MUNI ARPT FAIR      49  35  57 W5        30.18S
BOULDER MUN AP FAIR      52  37  58 CALM      30.13S
CENTENNIAL     MOCLDY    49  34  56 S12       30.15R
BROOMFIELD     PTCLDY    54  34  47 CALM      30.15R
LOVELAND       CLEAR     50  37  61 SE9       30.13R
LONGMONT       FAIR      48  37  67 W6        30.15R
$$

COZ041-046-047-076>085-087-088-230500-
...PIKES PEAK/PALMER DIVIDE AND SOUTHERN FOOTHILLS...

CITY           SKY/WX    TMP DP  RH WIND       PRES   REMARKS
COLO. SPRINGS  MOCLDY    45  37  73 SE8       30.21R
A. F. ACADEMY  CLOUDY    45  37  72 S9        30.21R
SCHRIEVER AFB  NOT AVBL
CHEYENNE MTN   NOT AVBL
ELLICOTT         N/A    N/A N/A N/A SE9       30.20R
FALCON         FAIR      38  36  89 S6        30.23S
FORT CARSON    MOCLDY    45  38  77 S8        30.19R
LIMON          CLEAR     41  36  82 S8        30.19R
MONUMENT HILL  PTCLDY    37  34  87 S10       30.22S
CANON CITY     FAIR      48  39  71 E6        30.19R
WALSENBURG     FAIR      46  32  57 N3        30.19S
TRINIDAD       PTCLDY    47  31  53 SE5       30.17R
$$

COZ042>045-048>051-090-091-230500-
...NORTHEAST COLORADO...

CITY           SKY/WX    TMP DP  RH WIND       PRES   REMARKS
GREELEY ARPT   CLEAR     48  38  68 SE8       30.14R
AKRON          CLEAR     42  37  82 SE12      30.16R
BURLINGTON     CLEAR     34  32  92 S9        30.19R WCI  27
WRAY           FAIR      43  34  70 CALM      30.18R
YUMA           NOT AVBL
STERLING       NOT AVBL
HOLYOKE        FAIR      41  36  81 SE7       30.18R
FORT MORGAN    FAIR      46  37  69 SE10G16   30.16R
$$

COZ086-089-092>099-230500-
...SOUTHEAST COLORADO...

CITY           SKY/WX    TMP DP  RH WIND       PRES   REMARKS
PUEBLO         PTCLDY    49  35  58 E8        30.17R
LA JUNTA       CLEAR     46  36  68 E10       30.17R
LAMAR          CLEAR     43  36  76 SE9       30.17R
SPRINGFIELD      N/A     39  35  86 SE7       30.18R
$$




USA.gov is the U.S. government's official web portal to all federal, state and local government web resources and services.